Temp_Advection
nan nan nan nan nan nan nan nan nan nan nan nan nan nan nan nan nan nan nan nan nan nan nan nan nan nan nan nan nan nan nan nan nan nan nan nan nan nan nan nan nan nan nan nan nan nan nan nan nan nan nan nan nan nan nan nan nan nan nan nan nan nan nan nan nan nan nan nan nan
nan 1 0 0 0 0 0 0 0 0 0 0 0 1 1 0 0 0 1 2 3 3 2 2 2 2 1 1 2 2 1 1 2 4 5 5 4 3 1 4 7 4 2 1 0 0 1 2 3 2 2 0 -0 -0 1 1 1 1 1 1 1 0 0 0 1 1 1 0 nan
nan 1 0 0 0 0 -0 -0 -0 -0 -0 -0 1 1 1 1 1 1 1 1 2 3 3 3 3 2 2 2 2 2 1 1 3 5 6 4 3 2 1 4 5 3 1 0 0 1 2 3 3 2 1 0 -0 0 1 1 1 1 1 1 1 0 0 0 1 1 1 0 nan
nan 1 0 -0 -0 -1 -1 -1 -1 -0 -0 0 1 1 2 2 2 2 1 1 1 1 2 3 4 3 2 2 1 1 0 1 3 4 3 1 0 1 2 3 3 2 1 0 -0 1 2 3 3 2 1 0 0 1 1 0 1 1 1 1 1 1 0 1 1 1 0 0 nan
nan 0 -0 -1 -1 -1 -1 -1 -0 0 1 1 1 1 2 2 2 2 1 1 0 -0 1 3 5 4 3 1 0 -0 -0 1 2 2 1 0 1 2 2 2 2 1 0 -0 -1 1 3 4 3 2 1 0 1 1 0 0 1 1 1 1 1 0 0 1 1 0 0 0 nan
nan 0 -0 -0 -1 -1 -1 -0 0 0 1 1 1 1 1 2 2 1 1 1 1 1 2 2 3 4 3 2 0 -0 -0 1 2 1 1 1 2 2 2 2 1 0 -0 -1 -1 1 4 4 2 1 0 0 1 0 0 1 1 1 1 0 0 0 0 1 0 0 0 -0 nan
nan 0 0 -0 -0 -0 -0 0 1 1 2 1 1 0 1 2 2 2 2 2 1 2 3 2 1 1 2 2 1 0 1 1 1 1 1 1 2 2 3 2 1 -0 -1 -1 -0 2 5 5 2 1 0 0 0 0 0 1 1 1 0 0 0 0 0 0 0 -0 -0 -0 nan
nan 0 0 0 0 0 1 1 1 1 1 1 0 0 1 2 3 3 3 2 1 1 1 1 1 1 1 2 2 1 1 1 1 1 1 1 2 2 2 1 -0 -1 -1 -0 1 4 6 5 3 1 0 0 -0 0 1 1 1 0 -0 0 0 0 0 0 0 -0 -0 -0 nan
nan 1 1 1 1 1 1 1 1 1 1 1 1 1 2 3 3 3 2 1 1 1 1 0 -0 0 1 2 2 1 1 1 1 2 2 2 1 0 -0 -1 -1 -1 -0 1 3 6 6 4 2 0 -0 -0 -0 0 1 1 0 -0 -0 0 0 0 0 0 -0 -0 0 0 nan
nan 1 1 1 1 2 2 1 1 1 1 1 2 2 3 3 2 1 1 1 2 1 0 -1 -1 -0 1 1 2 2 2 1 1 2 2 1 -0 -0 -1 -1 -1 -0 1 3 5 6 5 2 -0 -1 -1 -1 -0 1 1 0 -0 -0 0 1 1 0 0 0 -0 0 0 1 nan
nan 1 1 1 2 2 2 1 1 1 1 2 3 3 2 2 1 1 2 2 2 0 -1 -1 -1 -0 0 1 2 3 4 2 1 1 1 0 0 0 0 -1 -1 1 3 4 5 5 3 0 -1 -1 -1 -0 1 1 1 0 0 0 1 1 1 1 0 0 0 0 0 1 nan
nan 1 1 2 2 1 1 1 1 1 2 3 3 2 1 1 1 2 2 1 0 -0 -0 -0 -0 -0 1 2 4 4 3 2 1 0 0 0 1 1 1 0 1 3 5 6 5 3 1 -1 -2 -1 -0 1 1 1 0 0 0 1 1 1 1 0 0 0 0 0 0 1 nan
nan 1 1 1 1 1 2 2 2 2 3 4 2 1 1 1 1 2 1 0 0 0 0 0 0 1 2 4 4 3 2 1 1 0 0 1 1 1 1 1 2 4 5 5 4 2 -0 -1 -1 -0 1 1 1 0 0 1 1 1 1 1 1 0 0 0 0 0 0 0 nan
nan 1 0 0 1 2 2 2 2 3 4 3 1 1 1 1 1 1 0 0 1 1 1 1 1 1 3 4 3 1 1 0 0 0 0 1 1 2 2 2 4 5 5 4 2 0 -1 -1 -0 1 1 1 0 0 1 1 1 1 1 1 0 0 0 0 0 0 0 0 nan
nan 0 0 0 1 2 2 2 3 4 4 2 0 1 1 1 1 1 1 1 1 1 1 1 1 2 3 3 1 1 0 -0 -0 0 1 2 2 2 3 4 5 5 4 2 0 -1 -1 -0 1 1 1 0 1 1 1 1 1 1 1 1 0 0 -0 -0 -0 0 -0 -0 nan
nan -0 0 1 1 2 2 3 3 4 2 1 0 1 1 0 1 1 1 1 1 1 1 1 1 2 2 2 1 0 -0 -0 -0 0 1 3 3 3 3 4 4 3 2 1 -1 -1 -0 1 2 1 1 1 1 1 1 1 1 1 1 0 0 -0 -0 -0 -0 -0 -0 -0 nan
nan 0 1 1 2 2 3 3 3 3 1 0 0 1 0 1 1 1 1 1 1 1 2 2 2 2 1 1 0 0 0 0 0 1 2 3 3 3 3 4 3 2 1 0 -1 -0 1 2 1 1 1 1 1 0 0 1 1 1 1 0 -0 -0 -0 -0 -0 -0 0 1 nan
nan 1 1 2 3 3 2 2 2 1 1 0 1 1 1 1 1 1 1 1 1 2 2 2 2 1 0 0 0 1 1 0 1 2 3 4 3 3 3 3 3 2 1 -0 -0 1 1 1 0 0 0 0 0 0 1 1 1 1 1 0 -0 -0 -0 -0 -0 0 1 1 nan
nan 1 2 3 3 2 2 2 1 1 1 1 1 1 1 1 1 1 1 1 2 2 2 2 1 0 0 1 1 1 1 1 2 3 4 4 3 3 4 4 3 1 -0 -0 0 1 0 -0 -0 -0 -0 0 1 1 1 1 1 1 0 -0 -0 -0 -0 -0 0 1 1 1 nan
nan 2 3 3 2 2 1 1 1 1 1 1 1 1 1 1 1 1 1 2 2 2 2 1 0 0 1 1 1 1 1 2 3 4 4 4 4 4 4 3 2 0 -0 0 1 0 -0 -0 -0 0 1 1 1 1 1 1 1 0 -0 -0 -0 -0 0 0 1 1 1 0 nan
nan 2 3 3 1 1 0 1 1 1 1 1 1 1 1 1 1 1 2 2 2 2 1 1 0 1 1 1 1 2 2 3 4 5 5 5 5 4 3 2 0 -0 -0 0 0 -0 -0 0 1 1 2 2 1 1 1 0 -0 -0 -0 -0 -0 0 0 1 1 1 0 -0 nan
nan 2 2 1 1 0 0 1 1 1 1 1 1 1 1 1 1 2 2 2 2 2 1 1 1 2 2 2 2 3 4 4 5 5 6 5 4 2 1 -0 -1 -1 -0 0 0 0 1 1 2 2 1 1 1 1 0 -0 -0 -0 -0 0 0 1 1 1 1 0 -0 -1 nan
nan 1 1 0 0 0 1 1 1 1 1 1 1 1 1 1 2 2 2 2 2 1 1 2 2 2 2 2 3 3 4 5 5 6 5 3 2 0 -1 -1 -1 -0 0 0 1 1 2 2 1 1 1 1 1 0 -0 -1 -1 -0 -0 0 1 1 1 1 0 -0 -0 -1 nan
nan 1 1 0 1 1 1 1 1 1 1 0 0 1 1 2 2 2 2 2 2 2 2 2 2 3 2 3 3 3 5 5 5 4 3 1 -0 -1 -1 -1 -0 0 1 1 2 2 2 1 1 1 1 0 0 -0 -1 -1 -0 -0 0 1 1 1 1 1 0 -0 -0 -0 nan
nan 1 1 1 1 1 1 1 1 1 1 0 1 1 2 2 2 2 2 2 2 2 3 2 2 2 2 2 3 4 5 5 4 2 0 -1 -1 -1 -1 -0 1 1 2 2 2 1 1 0 0 0 0 -0 -0 -1 -1 -0 0 0 1 1 1 1 1 0 0 0 -0 -0 nan
nan 1 2 2 2 2 2 2 1 1 1 1 2 3 3 3 2 2 2 2 3 3 3 2 2 2 3 4 5 5 5 3 1 0 -1 -1 -1 -1 0 1 2 2 1 1 0 0 -0 -0 -0 -0 -0 -0 -0 -0 -0 0 1 1 1 1 1 0 1 1 0 0 0 -0 nan
nan 2 2 2 2 2 2 2 2 2 2 3 3 4 3 3 2 2 2 3 3 3 2 3 3 3 4 5 5 3 2 1 0 -0 -1 -1 -1 0 1 1 1 1 0 -0 -0 -1 -0 -0 -0 0 -0 0 0 0 0 1 0 0 0 0 0 0 0 0 0 0 0 -0 nan
nan 3 3 3 3 3 3 3 3 3 4 4 4 3 3 2 2 2 2 3 3 3 3 4 4 4 4 3 2 1 0 -0 -0 -1 -0 0 1 1 1 1 0 -0 -0 -1 -0 -0 0 0 0 0 0 0 0 0 0 0 0 0 0 0 0 0 0 0 0 0 -0 -1 nan
nan 3 3 3 3 3 3 3 3 3 3 3 3 2 2 2 2 2 3 3 4 4 4 4 4 3 2 1 0 -0 -0 -0 -0 -0 0 1 1 1 0 -0 -1 -1 -0 -0 0 0 0 0 0 0 0 0 0 0 0 0 0 0 0 0 0 0 0 0 0 -0 -1 -1 nan
nan 2 2 2 2 2 2 2 2 2 2 2 2 2 2 2 3 4 4 5 4 4 3 2 2 1 0 -0 -0 0 -0 -0 0 0 0 0 -0 -0 -0 -0 -0 -0 0 0 0 0 0 0 0 0 1 0 0 0 0 0 0 0 0 0 0 0 0 -0 -0 -1 -1 -1 nan
nan 1 1 1 1 1 1 1 2 2 2 2 2 2 3 3 4 5 5 4 3 2 2 1 1 0 0 0 0 0 0 0 0 0 -0 -0 -0 -0 -0 0 0 0 0 0 0 0 0 0 0 1 1 0 0 0 0 0 0 0 0 0 0 0 -0 -0 -1 -1 -1 -0 nan
nan 0 0 0 0 1 1 1 1 2 2 2 3 3 4 4 4 3 2 2 1 1 1 1 0 0 0 0 0 0 0 -0 -0 -0 -0 -0 0 0 0 0 0 0 0 0 0 0 0 0 0 0 0 0 0 0 0 0 0 0 0 0 0 -0 -0 -1 -1 -0 0 0 nan
nan -0 0 0 1 1 1 1 2 2 3 3 3 3 3 2 2 1 1 0 0 0 0 -0 -0 -0 0 0 0 0 -0 -0 -0 -0 -0 0 0 0 0 0 0 0 0 0 0 0 0 0 0 0 0 0 0 0 0 0 0 0 0 -0 -0 -1 -1 -0 0 0 0 0 nan
nan 1 1 1 1 1 1 1 2 2 2 2 1 1 1 0 -0 -0 -0 -0 -0 -0 -0 -0 -0 -0 0 0 -0 -0 -0 -0 -0 -0 0 0 0 0 0 0 0 0 0 0 0 0 0 0 0 0 0 0 0 0 0 0 0 0 -0 -1 -1 -0 -0 0 0 0 0 0 nan
nan 2 2 1 1 1 1 0 0 -0 -0 -0 -0 -0 -0 -0 -0 -0 -0 -0 -0 -0 -0 -0 0 0 0 -0 -0 -0 -0 -0 -0 0 0 0 0 0 0 0 0 0 0 0 0 0 0 0 0 0 0 0 0 0 0 -0 -0 -0 -0 -0 -0 0 0 0 0 0 -0 -0 nan
nan 2 1 1 0 0 -0 -1 -1 -1 -1 -1 -1 -1 -0 -0 -0 -0 -0 -0 -0 -0 -0 -0 -0 -0 -0 -0 -0 0 0 0 0 0 0 0 0 0 0 0 0 0 0 0 0 0 0 0 0 0 0 0 -0 -0 -0 -0 -0 -0 -0 0 0 0 0 0 -0 -0 -0 -0 nan
nan 1 1 1 0 0 -0 -0 -0 -0 -0 -0 -0 -0 -0 -0 -0 0 0 -0 -0 -0 -0 -0 -0 -0 0 0 0 0 1 1 1 0 0 0 0 1 1 0 0 0 0 0 0 0 0 0 0 0 0 0 -0 -0 -0 -0 -0 -0 -0 0 0 0 -0 -0 -0 -0 -0 -0 nan
nan 1 1 1 1 0 1 1 1 0 0 0 0 0 0 0 0 0 0 0 -0 -0 -0 -0 0 0 0 0 0 0 0 0 0 0 0 0 0 0 0 0 0 0 0 0 0 -0 -0 0 0 0 0 0 0 -0 -0 -0 -0 -0 -0 -0 -0 -0 -0 -0 -0 -0 -0 -0 nan
nan 1 1 1 1 1 1 1 1 0 0 0 0 0 0 0 -0 -0 0 0 0 0 0 0 0 0 0 0 0 0 0 0 0 0 0 0 0 0 0 0 0 0 0 0 0 -0 -0 -0 0 0 0 0 0 -0 -0 -0 -0 -0 -0 -0 0 0 0 0 0 0 0 -0 nan
nan 0 1 1 1 1 1 1 0 0 0 0 0 0 -0 -0 -0 0 0 1 1 1 0 0 0 0 0 0 0 0 0 0 0 0 0 0 0 0 0 0 0 0 0 0 0 0 0 0 0 0 0 0 0 -0 -0 -0 -0 -0 0 0 0 0 0 0 0 0 0 0 nan
nan nan nan nan nan nan nan nan nan nan nan nan nan nan nan nan nan nan nan nan nan nan nan nan nan nan nan nan nan nan nan nan nan nan nan nan nan nan nan nan nan nan nan nan nan nan nan nan nan nan nan nan nan nan nan nan nan nan nan nan nan nan nan nan nan nan nan nan nan
Wind_Speed
37 38 39 40 40 40 41 41 41 42 43 44 44 44 44 44 43 42 42 42 43 45 45 45 46 47 48 49 50 50 50 51 51 51 51 50 49 49 49 49 46 41 34 30 28 27 27 28 28 28 27 26 26 26 26 24 23 22 22 22 21 19 18 16 15 13 11 11 11
37 38 39 40 40 40 40 40 41 41 42 43 43 44 45 45 45 44 44 44 44 45 45 44 44 45 46 48 49 49 50 51 52 52 51 50 50 49 49 48 45 39 33 29 27 27 27 27 27 27 27 27 27 27 26 25 25 24 23 22 20 18 16 15 13 12 11 11 11
36 38 39 40 40 40 40 40 40 41 41 41 42 43 44 45 46 46 46 45 45 45 45 44 43 43 44 45 46 47 48 50 51 51 50 48 47 47 47 46 43 38 33 30 28 28 28 27 27 27 28 28 29 28 28 27 26 25 23 21 19 17 15 13 12 11 11 11 12
35 37 39 39 40 40 40 40 40 40 40 40 41 42 44 45 46 46 46 46 46 45 44 43 43 43 42 43 44 45 46 48 49 49 48 47 46 46 45 44 41 37 33 30 30 30 29 27 27 28 29 29 29 29 28 28 27 25 22 20 18 16 14 13 12 11 11 11 12
34 37 38 39 39 39 39 39 39 39 40 40 41 42 43 44 45 46 46 46 46 46 45 43 42 43 43 42 42 43 44 46 47 48 48 47 46 45 44 42 40 38 35 32 32 32 30 28 29 29 30 30 30 30 30 29 26 24 22 20 18 16 14 13 12 11 11 12 12
32 35 37 38 39 39 39 39 39 39 40 41 42 42 43 43 44 45 46 46 47 46 45 44 42 42 43 42 41 41 42 44 46 46 47 47 46 45 43 41 38 36 34 33 33 32 30 29 30 31 32 32 32 31 30 28 25 23 21 20 18 16 14 13 12 12 12 12 13
28 31 34 36 37 38 39 39 39 40 41 41 42 42 42 43 43 44 45 46 46 46 45 44 43 42 42 42 41 41 41 42 44 45 46 46 45 44 41 37 34 33 32 32 32 32 31 31 32 33 34 34 33 32 30 28 25 23 21 19 17 15 14 13 13 13 13 13 12
24 27 30 32 34 36 38 39 40 40 41 42 42 42 42 42 43 43 44 45 45 45 45 44 43 42 41 41 42 42 42 43 43 44 44 43 42 40 37 34 31 30 30 30 31 31 31 33 34 35 35 34 33 32 30 27 24 22 20 18 16 15 14 13 13 13 13 12 11
24 25 26 29 32 34 37 39 40 41 41 42 42 42 42 42 43 43 44 44 45 44 44 43 43 42 42 41 42 42 43 44 44 44 43 41 39 36 33 31 30 30 30 30 30 30 32 34 35 35 35 34 32 31 28 25 23 21 19 17 15 14 14 13 13 13 12 11 10
26 25 25 26 29 33 36 39 40 41 41 42 42 42 42 42 43 43 43 43 43 43 43 43 43 43 43 43 43 43 43 43 43 42 40 38 36 34 32 32 32 32 32 31 30 31 32 34 34 35 34 33 31 28 26 24 22 20 18 16 14 13 13 13 13 12 11 10 9
28 27 26 26 28 31 35 38 40 41 41 42 42 42 42 43 43 42 42 42 42 42 43 43 43 43 43 44 44 43 41 39 37 36 35 33 33 33 33 33 34 34 33 31 31 32 33 34 35 35 34 32 29 26 24 23 21 18 16 14 13 12 12 12 12 11 10 9 9
29 28 27 26 27 30 34 37 39 41 42 42 42 42 42 42 42 42 41 41 41 41 42 42 43 43 43 43 42 40 37 34 33 33 32 32 33 33 34 33 33 33 32 31 32 33 34 35 35 34 32 29 26 24 23 21 19 16 14 13 12 12 12 11 10 10 9 9 10
29 28 27 27 27 30 32 36 38 40 41 42 42 42 42 42 41 41 40 40 41 41 41 42 42 42 42 41 38 35 33 32 32 32 32 32 33 33 33 33 32 31 31 31 33 34 36 36 35 33 30 27 25 23 22 19 17 15 13 12 12 12 11 10 10 10 10 11 12
28 28 27 27 28 29 32 35 38 39 41 41 42 42 42 42 41 40 40 40 40 41 41 41 41 41 39 37 34 32 31 30 31 32 32 33 33 33 33 32 31 30 31 32 34 36 36 35 33 30 27 25 24 22 20 17 15 14 13 12 12 11 11 11 11 11 12 12 13
27 28 28 28 29 30 33 35 37 39 40 41 41 42 42 41 41 40 40 40 40 40 40 40 40 38 36 34 31 30 30 30 30 31 32 33 33 32 32 31 30 31 33 34 35 36 35 32 30 27 25 24 23 21 18 16 14 13 12 12 11 11 12 12 12 12 13 13 14
26 27 28 29 30 32 34 36 37 39 40 40 41 41 41 41 41 41 40 40 40 40 40 39 38 36 34 31 30 29 29 29 30 30 31 32 32 31 30 30 31 33 35 36 36 34 32 29 27 26 25 23 21 19 17 15 14 13 12 12 12 12 13 13 13 13 13 14 14
25 27 28 30 31 33 34 36 37 38 39 40 41 41 41 41 41 41 41 40 40 39 38 37 35 33 31 30 29 28 28 29 29 29 30 31 31 30 30 31 33 35 36 36 34 32 29 27 26 25 24 22 20 18 16 14 13 12 12 12 13 13 13 13 13 13 13 14 14
25 27 28 30 32 33 35 36 37 38 39 40 40 41 41 41 41 41 40 39 39 38 37 35 33 32 31 30 29 28 28 28 29 29 30 30 30 30 31 33 35 36 35 34 32 30 28 28 27 25 23 21 18 16 14 13 12 12 12 12 13 12 12 12 13 13 13 13 13
25 27 28 30 32 33 34 35 37 38 39 39 40 40 40 40 40 40 39 38 37 36 35 33 31 31 31 30 29 28 28 29 29 30 30 30 31 31 33 34 35 35 34 32 31 30 29 28 27 24 21 19 16 14 13 12 11 12 12 12 12 11 12 12 12 13 13 13 15
25 27 28 30 31 32 33 34 36 37 37 38 39 39 39 38 38 38 38 37 36 34 33 31 30 29 29 29 28 29 29 30 30 30 30 31 32 33 34 34 34 34 33 32 31 30 29 27 25 22 19 16 14 12 11 11 11 11 11 11 11 11 11 12 12 13 13 15 16
25 26 27 29 30 31 32 33 34 35 36 36 36 36 36 36 36 36 36 35 34 33 31 30 29 29 28 29 29 30 31 31 30 30 31 32 33 34 34 33 33 33 33 32 30 29 27 25 21 19 16 14 13 12 11 11 11 11 10 10 11 11 12 12 13 13 14 16 17
24 25 26 28 29 30 31 32 33 33 34 34 34 34 34 35 35 35 35 34 33 32 31 30 29 29 29 30 31 31 31 31 30 31 32 33 34 33 33 33 33 33 32 30 29 27 24 21 19 17 15 13 12 11 11 11 10 10 10 11 11 12 12 13 13 14 15 17 18
24 24 26 27 28 30 31 31 31 32 32 32 32 33 34 34 35 35 34 34 33 32 31 31 30 30 30 30 30 31 31 31 31 32 33 34 34 33 32 32 32 31 29 28 26 23 21 19 17 16 14 12 11 11 10 10 10 11 11 11 12 12 12 13 14 15 16 17 18
23 24 26 27 28 29 30 31 31 31 31 31 32 33 34 35 35 35 34 33 33 32 31 31 30 30 30 29 29 30 31 32 33 35 35 34 32 31 31 30 29 28 26 25 23 21 19 18 17 15 13 12 11 11 11 11 11 12 12 12 12 12 13 14 15 16 17 18 19
24 25 26 27 28 29 30 31 31 31 31 32 33 34 35 35 35 35 34 33 32 32 31 31 30 30 29 29 29 30 31 32 34 34 34 32 30 30 29 29 27 26 24 23 21 20 19 17 16 14 12 11 11 11 11 12 12 12 12 12 13 13 14 14 15 16 17 18 19
25 26 27 28 29 30 30 31 32 32 33 33 34 35 35 35 35 34 33 32 32 32 31 30 30 29 29 29 29 30 30 31 31 30 30 29 29 29 28 27 26 25 24 22 21 20 18 16 14 12 11 11 11 11 12 12 12 12 13 13 13 13 14 14 15 16 17 18 19
26 27 28 29 29 30 31 32 33 33 34 34 34 34 34 34 33 32 32 31 31 31 30 29 29 29 29 29 29 28 28 28 27 27 27 28 28 29 28 27 26 25 23 22 20 18 16 14 12 11 10 10 11 11 12 12 12 13 13 13 13 13 14 14 15 16 17 19 20
27 27 28 29 30 30 31 32 32 33 33 33 33 33 33 32 32 31 30 30 30 30 29 29 29 28 28 27 26 25 25 25 25 26 27 28 29 29 28 27 25 24 22 20 17 15 13 11 10 10 10 10 11 11 12 12 12 12 12 12 13 13 14 14 15 16 18 19 20
27 28 28 29 29 30 30 30 31 31 31 31 31 31 31 30 30 29 29 29 29 29 29 29 28 27 25 24 23 23 23 24 26 27 28 29 29 28 27 25 23 21 18 16 13 11 10 9 9 9 10 11 11 12 12 12 12 12 12 12 13 13 14 15 16 17 18 20 21
26 27 27 28 28 28 28 28 28 29 29 29 29 29 29 28 28 28 28 28 28 28 28 28 26 24 23 22 22 23 24 25 27 28 29 28 27 25 23 21 19 16 13 11 10 9 9 9 9 10 10 11 11 11 12 12 12 12 12 13 13 14 15 16 17 18 19 20 21
24 25 25 25 26 26 26 26 26 27 27 28 28 28 28 27 28 28 28 28 27 27 26 24 23 22 21 21 22 23 25 26 27 27 26 24 23 20 18 16 13 11 10 9 8 8 9 9 9 10 10 10 11 11 11 12 12 12 13 13 14 15 16 17 18 19 20 20 21
22 23 23 24 24 24 24 25 25 26 27 27 27 27 27 27 27 27 26 26 25 24 23 22 21 20 20 21 22 24 25 26 25 24 22 19 18 16 14 12 10 9 9 8 8 9 9 9 9 9 10 10 11 11 12 12 12 12 13 13 14 16 17 18 19 20 20 20 20
20 21 22 23 24 24 24 24 25 26 26 27 27 27 27 26 26 25 24 23 22 21 20 19 19 19 19 20 22 23 24 23 21 20 18 16 14 12 11 10 9 9 9 9 9 9 9 9 9 9 9 10 11 11 12 12 12 13 13 14 15 16 18 18 19 19 19 19 19
19 20 22 23 24 24 24 25 25 25 26 25 25 25 24 23 22 22 21 20 19 18 17 17 17 17 18 19 21 21 21 20 18 16 15 13 12 10 9 9 9 9 8 9 9 9 9 9 9 9 9 9 10 11 11 12 12 13 14 15 16 17 17 17 18 18 18 18 18
20 22 23 23 24 24 24 24 23 23 22 22 21 21 20 19 19 18 18 17 17 16 15 15 15 16 17 19 19 19 18 17 16 14 13 12 10 10 9 9 8 8 8 8 9 9 9 9 8 8 8 9 10 10 11 12 13 14 15 16 16 16 16 16 16 16 17 17 17
21 22 23 23 23 22 22 21 20 19 18 18 17 17 16 16 15 15 14 14 14 15 15 16 17 18 19 20 19 18 16 15 13 12 11 10 10 9 9 8 8 8 8 8 8 8 8 8 7 7 8 9 10 10 11 12 13 14 15 15 15 15 15 15 15 16 16 17 18
19 20 20 20 20 19 18 17 17 16 15 15 14 13 13 13 13 12 12 13 15 16 18 19 20 21 20 19 18 16 14 12 11 10 10 9 8 8 7 7 7 7 7 7 7 7 7 7 7 7 8 9 10 11 12 13 13 14 14 14 14 14 14 14 15 16 17 17 18
15 16 16 16 16 16 15 15 14 13 13 12 11 11 11 11 12 14 15 16 18 20 21 22 21 20 18 16 15 13 12 11 10 9 9 8 7 6 6 6 6 5 5 5 6 6 7 7 7 7 9 10 11 12 12 13 13 13 13 13 13 14 14 15 15 16 17 17 18
12 13 13 13 13 13 13 13 12 11 11 10 10 11 12 14 16 18 20 21 21 21 21 20 18 17 15 14 13 13 12 11 10 9 8 7 6 5 4 4 4 4 4 4 5 7 8 8 8 9 9 10 11 11 12 12 12 12 13 13 13 14 14 15 15 15 16 16 16
10 10 11 11 11 11 11 11 11 10 10 11 13 16 18 20 21 22 22 22 20 19 18 17 16 15 14 14 13 13 12 11 9 8 7 6 4 4 3 3 3 3 4 5 7 8 9 9 9 10 10 10 11 11 12 12 13 13 13 14 14 14 14 14 14 14 14 15 15
8 8 9 9 9 9 9 10 10 11 13 16 18 21 22 23 23 22 21 19 18 17 16 16 15 15 14 13 12 11 9 8 7 6 5 4 4 3 3 3 3 4 5 6 7 8 9 10 10 11 11 11 11 12 13 13 14 14 14 14 14 14 14 13 13 13 13 13 14
Wind_Direction
248 247 247 248 248 248 248 248 247 246 246 246 246 247 248 249 250 251 250 246 242 239 237 236 237 237 238 239 239 239 239 239 238 238 237 236 235 235 236 236 234 230 230 237 243 243 239 232 224 216 209 207 210 215 218 219 220 220 222 225 229 232 235 237 238 239 240 241 244
248 247 247 248 248 248 248 247 247 246 246 246 247 247 248 248 249 249 249 248 246 243 240 237 236 236 236 237 237 237 236 236 236 236 235 233 233 234 235 235 234 230 229 235 242 243 238 229 218 209 205 206 210 214 216 217 219 221 224 227 229 231 232 232 233 235 237 240 245
248 247 247 247 247 247 246 246 247 247 247 247 248 248 248 247 247 247 247 248 247 246 243 240 238 237 236 235 235 234 233 234 234 234 234 233 233 234 236 236 236 232 230 233 239 242 238 227 214 205 204 207 211 213 215 218 220 223 225 226 226 226 226 227 230 233 237 242 247
249 248 247 247 247 247 247 248 248 249 249 249 249 248 247 247 246 246 245 245 245 245 245 244 242 240 238 236 234 233 233 234 234 234 234 234 234 235 236 238 238 236 235 234 239 243 238 224 210 204 205 209 213 215 217 221 223 224 223 222 220 220 222 225 229 233 237 242 247
249 249 248 249 249 249 250 251 251 251 250 250 249 248 247 246 245 244 243 243 243 244 245 245 243 242 241 239 236 235 236 236 236 236 236 236 237 237 239 240 241 241 241 240 244 245 238 220 207 204 207 211 214 217 221 224 224 223 219 217 217 218 220 224 228 231 235 240 246
251 251 251 251 251 252 252 252 252 252 251 249 248 247 247 246 245 244 242 242 243 243 243 243 242 241 241 242 241 241 240 239 239 238 238 239 240 240 241 241 242 243 244 245 246 245 235 216 205 204 208 211 215 219 222 224 222 217 214 214 215 218 220 224 227 231 235 241 248
256 254 253 253 253 253 253 253 252 251 249 248 246 246 247 247 246 245 244 243 243 242 241 241 240 240 241 242 244 245 245 244 242 240 240 240 240 241 241 240 240 242 244 245 244 240 229 212 205 206 210 213 216 219 221 220 216 212 211 213 216 218 221 225 229 234 239 246 253
266 261 258 256 256 255 254 253 251 249 247 246 246 246 247 247 246 245 244 243 241 241 240 240 241 241 242 241 242 244 245 246 244 242 240 239 239 240 239 238 238 240 243 243 240 231 219 208 206 208 212 214 217 219 218 215 211 210 212 214 217 220 223 227 232 237 242 248 255
275 270 265 260 257 255 253 251 249 248 247 246 246 246 246 246 245 244 243 242 242 241 241 240 242 243 244 243 243 242 243 244 245 244 241 239 238 238 238 238 239 241 241 237 229 219 210 205 206 210 213 216 217 217 215 211 210 212 214 217 219 221 225 229 234 238 243 249 256
280 277 271 264 258 254 251 248 247 247 246 246 245 245 244 243 243 243 243 243 243 242 240 241 243 244 245 246 246 245 244 243 245 246 245 244 243 243 242 241 243 243 240 230 220 211 205 204 208 211 214 216 216 214 212 210 212 214 217 218 220 223 228 232 237 242 247 253 259
282 280 275 267 259 253 249 246 246 245 245 244 243 241 241 241 242 243 243 243 242 241 241 242 244 245 247 248 248 247 246 246 247 249 249 249 248 246 244 242 242 241 235 222 213 207 205 206 211 214 215 215 213 210 209 210 213 214 215 217 220 225 230 235 240 247 253 260 263
281 280 275 268 260 253 249 246 244 243 242 241 240 239 239 240 241 241 241 241 240 240 241 243 244 246 247 248 248 248 248 248 249 250 250 249 247 244 241 238 238 235 227 215 208 205 206 210 214 216 215 212 209 207 208 210 211 211 212 214 219 225 232 238 244 249 255 258 259
279 277 272 266 259 253 248 245 244 242 240 239 237 237 237 238 239 239 239 239 239 239 240 241 243 244 246 246 247 248 249 249 249 249 248 246 243 240 237 234 232 227 219 210 207 207 209 212 215 215 212 208 206 206 208 209 208 207 209 214 220 226 233 239 244 248 250 252 255
277 274 269 264 258 252 247 244 242 240 238 236 235 235 236 236 237 237 237 238 238 238 238 239 240 242 243 244 246 248 249 249 247 247 245 242 239 236 233 230 226 219 211 207 207 209 211 213 214 212 208 205 206 207 207 205 204 205 210 216 222 228 235 240 244 248 251 256 261
276 273 268 262 256 250 245 241 240 238 236 234 234 234 234 234 235 235 236 236 237 237 237 238 239 240 241 242 245 248 249 248 247 245 243 239 235 231 228 224 218 211 207 206 208 210 211 212 210 207 204 205 205 205 203 202 203 206 211 218 225 231 237 243 248 254 259 265 271
278 272 265 258 251 246 242 239 238 236 234 233 233 233 233 233 234 234 234 235 236 236 237 237 237 238 239 241 243 246 248 248 247 245 241 236 231 226 222 217 212 207 206 207 208 210 209 207 204 202 202 203 202 201 200 201 204 208 214 221 228 236 242 249 256 263 268 273 278
277 269 261 253 246 242 239 237 236 235 234 233 233 233 233 233 233 233 233 234 235 236 236 235 236 237 239 242 244 245 245 246 245 242 238 232 226 222 217 213 209 207 207 207 208 208 205 201 200 200 200 200 199 199 200 203 207 213 220 227 234 241 249 257 264 270 274 278 281
273 265 256 248 241 237 235 234 234 234 234 233 233 233 233 232 232 232 233 235 236 235 234 234 235 239 243 246 246 244 242 242 241 238 232 226 222 218 215 212 210 208 208 208 207 205 202 200 199 199 199 198 198 199 201 205 211 218 225 233 240 249 257 264 270 274 277 279 278
270 261 251 242 236 233 232 232 232 233 233 233 233 233 232 232 232 233 234 235 235 234 233 233 236 240 245 247 246 243 240 237 235 231 225 220 217 215 213 211 208 207 207 207 205 203 202 201 200 200 199 198 198 200 203 208 215 223 230 238 247 256 264 269 273 275 276 275 272
265 257 247 238 233 231 230 231 231 231 232 232 232 231 231 231 232 233 234 234 233 232 231 232 235 240 242 242 242 240 237 233 229 224 219 215 213 211 209 207 206 205 206 205 204 202 202 201 201 200 198 197 197 199 203 210 219 228 236 244 253 261 266 270 273 274 274 271 270
258 252 244 237 232 230 230 231 231 230 230 230 230 230 230 231 232 232 232 232 231 229 228 230 234 237 238 237 236 234 231 227 222 217 214 211 209 207 205 205 204 205 205 204 203 202 201 200 199 197 195 194 195 199 205 214 223 233 241 250 257 263 267 271 273 274 273 272 273
250 245 241 236 233 232 232 232 231 230 229 229 229 229 230 231 231 230 229 229 227 225 225 228 231 233 232 231 229 227 224 219 215 211 209 207 205 203 203 204 205 205 204 203 202 200 199 197 195 194 193 193 195 201 210 219 229 238 246 253 260 265 269 272 274 275 274 275 276
241 238 236 235 234 234 233 232 231 230 228 228 227 228 228 228 228 227 225 224 223 223 224 226 227 227 226 224 222 219 216 212 207 205 204 203 202 202 203 204 205 204 203 201 199 197 195 194 193 192 192 193 198 207 217 227 236 244 251 256 261 265 269 272 273 275 276 276 277
232 231 231 231 232 232 232 231 229 228 226 226 226 226 226 225 224 222 221 220 220 221 221 222 222 221 219 218 215 213 211 207 202 199 198 200 201 202 204 204 203 201 199 197 195 193 192 192 191 191 192 196 204 214 224 233 242 249 254 259 262 265 268 270 272 274 276 277 277
227 226 226 226 226 227 227 227 226 225 224 224 225 224 223 221 219 217 217 217 217 218 218 218 217 216 215 213 211 210 207 204 200 196 195 197 200 203 203 201 198 195 193 191 190 190 191 192 191 191 194 201 211 221 232 241 248 254 259 262 264 267 269 271 274 275 276 277 277
225 223 222 221 220 220 221 221 221 221 222 222 222 220 218 215 214 213 213 213 213 214 214 214 214 213 212 210 208 205 202 201 200 199 198 199 200 200 198 194 191 188 188 187 188 189 190 191 192 195 201 210 221 231 241 249 254 259 262 265 268 271 273 275 276 277 277 277 277
219 217 215 215 214 214 214 215 216 217 217 217 216 214 211 210 209 209 209 209 209 210 210 210 210 210 208 206 203 200 199 200 201 202 202 200 197 194 190 187 186 186 186 187 188 189 190 191 194 201 211 222 233 242 250 255 259 263 266 270 273 275 277 277 277 276 276 276 277
210 208 208 207 207 207 208 209 210 210 210 209 208 206 205 204 204 204 205 206 207 207 206 206 206 205 203 200 199 199 200 201 201 200 198 195 191 187 185 184 185 185 186 187 188 189 191 195 202 212 224 234 243 250 255 259 263 267 271 275 277 278 277 277 276 276 275 276 277
202 201 200 200 199 200 201 201 201 201 202 201 201 200 200 200 201 203 204 204 204 203 202 201 200 198 196 195 196 199 201 200 197 194 190 187 185 184 184 184 185 185 186 186 188 191 196 204 214 225 234 243 249 254 259 264 269 273 276 277 277 276 275 275 276 276 276 276 276
197 196 195 194 193 193 193 193 193 194 194 195 195 196 197 199 200 201 201 200 199 198 197 196 193 191 191 193 195 197 196 194 190 187 185 183 182 182 183 184 184 184 184 186 190 197 207 217 226 234 241 248 254 260 265 269 272 275 276 276 276 276 276 277 277 277 276 276 277
194 193 192 192 190 188 187 188 188 189 190 191 191 193 195 196 196 195 195 194 194 194 193 191 189 189 190 192 194 193 190 187 184 182 181 180 179 179 180 180 180 181 184 190 199 209 218 227 234 241 248 254 259 264 267 270 273 274 276 277 278 279 279 279 278 277 277 277 278
195 195 194 192 190 188 186 185 185 186 187 188 189 190 190 190 189 189 190 190 190 190 189 188 189 190 191 190 189 187 183 180 178 176 176 175 175 175 175 175 178 184 192 201 210 219 227 234 241 247 253 258 262 265 269 272 275 278 280 282 282 281 280 279 278 277 278 279 281
201 199 197 194 191 189 187 186 185 185 186 186 186 185 185 185 185 186 186 188 189 189 189 190 192 192 190 187 183 179 176 173 171 170 169 169 170 171 173 178 185 193 203 211 220 227 234 240 246 252 257 261 266 270 275 279 282 285 285 284 282 280 279 278 278 279 281 282 284
214 210 204 199 195 192 190 187 186 184 183 182 182 183 183 184 184 184 185 187 189 192 194 195 194 190 185 180 176 172 168 166 164 163 163 165 168 173 180 188 196 204 212 220 227 234 241 247 253 258 264 268 274 279 283 286 288 287 285 282 280 280 279 280 281 283 284 286 288
228 222 214 206 201 196 192 189 186 185 183 182 182 183 184 185 186 187 189 190 192 193 191 188 183 177 172 168 166 163 160 158 158 159 162 167 173 181 189 198 205 212 220 227 234 242 248 255 262 269 275 279 284 287 288 288 286 284 282 281 281 282 283 285 286 287 289 291 292
229 225 218 211 205 200 197 194 191 190 188 188 187 186 186 188 189 191 192 192 188 183 176 169 164 160 158 156 155 154 153 154 157 161 167 174 181 189 196 204 211 218 226 234 243 251 260 268 276 283 286 288 288 287 285 283 282 282 282 283 285 287 288 290 291 292 293 294 294
223 221 217 211 207 204 202 201 198 196 193 192 190 189 188 187 186 184 182 177 170 163 157 152 150 148 147 146 146 147 150 155 161 167 174 180 187 193 200 208 217 227 237 248 260 270 279 285 288 288 286 283 281 281 281 282 284 285 287 289 291 292 293 294 295 296 296 296 296
213 213 211 209 207 205 203 201 198 195 191 189 186 183 179 174 168 162 159 155 151 147 144 142 140 140 140 140 143 147 153 159 165 171 176 181 187 194 203 214 227 240 255 271 281 286 288 286 282 278 275 276 278 281 284 287 290 293 295 296 297 297 297 298 298 298 299 299 299
201 202 203 204 203 200 197 194 191 188 184 178 170 163 158 153 149 146 144 142 139 137 135 134 134 135 139 143 149 154 159 163 166 168 171 176 184 195 207 223 241 258 272 278 278 276 275 273 271 270 272 277 281 287 291 295 298 299 300 299 299 300 300 300 300 300 300 300 300
194 196 198 199 197 194 189 185 181 176 168 158 150 146 144 142 140 138 136 135 132 131 130 132 136 141 148 154 158 161 163 164 164 165 167 173 183 201 219 236 250 260 262 259 261 263 267 270 272 274 278 283 289 294 297 300 301 301 300 299 300 301 301 301 301 300 300 300 301
192 194 195 194 191 187 182 175 168 159 151 144 140 139 137 135 133 132 132 132 132 134 137 142 147 152 156 159 161 162 161 161 163 165 170 179 193 209 223 233 237 240 245 250 256 263 270 276 280 284 287 290 294 297 300 300 301 301 301 300 300 301 301 301 300 300 301 303 304
Height
1453 1453 1454 1455 1456 1457 1458 1460 1461 1462 1463 1464 1465 1466 1466 1467 1467 1468 1469 1470 1471 1472 1472 1473 1474 1474 1474 1475 1476 1476 1477 1477 1478 1479 1479 1480 1481 1482 1482 1483 1484 1486 1489 1491 1492 1493 1493 1494 1495 1496 1498 1500 1502 1503 1505 1505 1506 1506 1505 1506 1506 1507 1507 1507 1507 1507 1508 1508 1509
1451 1452 1452 1453 1454 1456 1457 1458 1459 1460 1461 1462 1463 1464 1464 1465 1465 1466 1466 1467 1467 1469 1470 1471 1472 1473 1473 1473 1474 1474 1475 1475 1476 1477 1477 1478 1479 1479 1480 1481 1483 1485 1487 1490 1492 1492 1492 1493 1494 1495 1497 1498 1500 1502 1502 1503 1503 1503 1503 1504 1505 1505 1506 1506 1506 1506 1506 1507 1507
1450 1450 1450 1451 1452 1453 1455 1456 1457 1458 1459 1460 1461 1462 1462 1463 1463 1464 1464 1464 1465 1467 1468 1469 1471 1471 1472 1472 1473 1473 1473 1474 1475 1475 1475 1476 1477 1478 1479 1480 1482 1484 1486 1488 1490 1491 1491 1492 1492 1494 1495 1497 1499 1500 1500 1501 1501 1501 1502 1502 1503 1504 1505 1505 1505 1505 1505 1506 1506
1448 1448 1449 1449 1450 1452 1453 1454 1455 1456 1457 1458 1459 1460 1460 1461 1461 1462 1462 1463 1463 1464 1465 1467 1469 1470 1471 1471 1472 1472 1472 1473 1473 1473 1474 1475 1477 1477 1478 1479 1481 1483 1485 1486 1488 1489 1490 1491 1492 1493 1495 1496 1497 1498 1498 1499 1499 1500 1500 1501 1502 1502 1503 1503 1503 1503 1503 1504 1505
1446 1446 1447 1448 1449 1450 1451 1452 1453 1454 1455 1456 1457 1457 1458 1458 1459 1460 1460 1461 1462 1462 1463 1465 1466 1468 1469 1470 1470 1471 1471 1472 1472 1472 1472 1474 1475 1475 1476 1478 1480 1482 1483 1485 1486 1487 1488 1489 1491 1492 1493 1494 1495 1496 1497 1497 1498 1499 1499 1500 1500 1501 1501 1502 1502 1502 1502 1503 1504
1444 1445 1445 1446 1447 1448 1449 1450 1451 1452 1453 1454 1454 1455 1455 1456 1457 1457 1458 1459 1460 1460 1461 1462 1463 1465 1467 1468 1469 1469 1470 1470 1471 1471 1472 1472 1472 1473 1475 1477 1478 1480 1482 1483 1485 1485 1486 1487 1489 1490 1492 1492 1493 1494 1495 1496 1497 1497 1498 1498 1499 1499 1500 1500 1500 1501 1501 1502 1502
1443 1443 1444 1444 1446 1447 1447 1448 1449 1450 1451 1451 1452 1452 1453 1454 1455 1455 1456 1457 1458 1459 1459 1460 1461 1462 1464 1465 1467 1468 1469 1469 1469 1470 1470 1471 1472 1473 1474 1476 1478 1480 1481 1482 1483 1484 1484 1485 1487 1488 1489 1490 1491 1492 1493 1494 1495 1496 1496 1497 1497 1498 1498 1499 1499 1499 1500 1500 1500
1442 1442 1442 1443 1444 1445 1446 1447 1447 1448 1448 1449 1449 1450 1451 1452 1453 1454 1454 1455 1456 1457 1458 1459 1459 1460 1461 1462 1464 1466 1467 1467 1468 1468 1469 1470 1471 1472 1474 1476 1478 1479 1480 1481 1481 1482 1482 1484 1485 1486 1487 1488 1489 1490 1491 1492 1493 1494 1495 1496 1496 1496 1497 1497 1498 1498 1498 1498 1498
1440 1440 1441 1441 1442 1443 1444 1445 1445 1446 1446 1447 1447 1448 1449 1450 1451 1452 1452 1453 1454 1455 1456 1457 1458 1459 1460 1460 1461 1462 1463 1464 1465 1466 1467 1469 1471 1472 1474 1476 1477 1478 1479 1479 1479 1480 1481 1482 1483 1485 1486 1487 1487 1488 1490 1491 1492 1493 1494 1494 1495 1495 1496 1496 1497 1497 1497 1497 1497
1438 1439 1439 1440 1440 1441 1442 1442 1443 1444 1444 1445 1446 1447 1447 1448 1449 1450 1451 1452 1453 1454 1455 1455 1456 1457 1458 1458 1458 1459 1460 1462 1463 1465 1467 1469 1471 1473 1474 1475 1475 1476 1477 1477 1477 1478 1480 1481 1482 1484 1484 1485 1486 1487 1489 1490 1491 1492 1493 1493 1493 1494 1495 1495 1496 1496 1495 1495 1495
1437 1437 1437 1438 1438 1439 1440 1440 1441 1442 1442 1443 1444 1445 1446 1446 1447 1448 1449 1450 1451 1452 1453 1454 1454 1455 1456 1456 1457 1457 1459 1462 1464 1465 1467 1469 1471 1472 1472 1472 1473 1473 1474 1475 1476 1477 1478 1480 1482 1482 1483 1484 1486 1487 1488 1489 1490 1491 1491 1492 1492 1493 1494 1494 1494 1494 1494 1494 1494
1435 1435 1436 1436 1436 1437 1437 1438 1439 1440 1441 1442 1442 1443 1444 1444 1445 1446 1447 1449 1450 1451 1452 1452 1453 1453 1454 1454 1455 1457 1459 1462 1463 1465 1466 1467 1468 1469 1470 1470 1470 1471 1472 1473 1474 1476 1477 1479 1480 1481 1482 1483 1485 1486 1487 1488 1488 1489 1490 1491 1492 1492 1493 1493 1493 1493 1492 1493 1493
1433 1433 1434 1434 1434 1435 1436 1436 1437 1438 1439 1440 1441 1441 1442 1443 1444 1445 1446 1447 1448 1449 1450 1451 1451 1452 1452 1453 1455 1457 1459 1461 1462 1463 1464 1465 1466 1467 1467 1468 1468 1469 1470 1472 1473 1475 1476 1477 1479 1480 1481 1482 1484 1485 1486 1487 1487 1488 1489 1490 1490 1491 1491 1491 1492 1492 1492 1492 1492
1432 1432 1432 1432 1433 1433 1434 1434 1435 1436 1437 1438 1439 1440 1440 1442 1442 1443 1445 1446 1447 1448 1449 1449 1450 1451 1452 1453 1455 1457 1458 1460 1461 1462 1462 1463 1463 1464 1465 1465 1466 1467 1469 1471 1472 1473 1475 1477 1478 1479 1481 1482 1483 1484 1485 1485 1486 1487 1488 1488 1489 1489 1490 1490 1490 1491 1491 1491 1491
1430 1430 1431 1431 1431 1432 1432 1432 1433 1434 1435 1436 1437 1438 1439 1440 1441 1442 1443 1444 1445 1446 1447 1448 1449 1450 1451 1453 1454 1456 1457 1458 1459 1460 1460 1461 1461 1462 1462 1463 1464 1466 1468 1469 1471 1472 1474 1476 1478 1479 1480 1481 1482 1482 1483 1484 1485 1486 1487 1487 1487 1488 1489 1489 1489 1489 1489 1489 1489
1429 1429 1429 1429 1430 1430 1431 1431 1432 1432 1434 1435 1436 1437 1438 1439 1440 1441 1442 1442 1444 1445 1446 1447 1448 1449 1450 1451 1452 1454 1455 1456 1457 1457 1458 1458 1459 1460 1461 1462 1463 1465 1467 1468 1470 1472 1474 1476 1477 1478 1479 1480 1480 1481 1482 1483 1484 1485 1485 1486 1487 1487 1488 1488 1488 1488 1488 1488 1488
1427 1427 1428 1428 1428 1429 1429 1430 1430 1431 1432 1433 1434 1435 1436 1437 1438 1439 1440 1441 1442 1443 1445 1446 1447 1447 1448 1449 1451 1452 1453 1454 1454 1455 1456 1457 1458 1458 1459 1460 1462 1464 1466 1468 1470 1472 1473 1475 1476 1477 1477 1478 1479 1480 1481 1482 1483 1483 1484 1485 1486 1487 1487 1487 1487 1487 1487 1486 1486
1426 1426 1427 1427 1427 1428 1428 1429 1429 1430 1431 1432 1433 1434 1435 1436 1437 1438 1439 1440 1442 1443 1444 1445 1446 1447 1447 1448 1450 1451 1452 1452 1452 1453 1454 1455 1456 1457 1458 1459 1461 1463 1466 1468 1470 1472 1472 1473 1474 1475 1476 1477 1478 1479 1480 1481 1482 1483 1484 1485 1486 1486 1486 1486 1485 1485 1485 1485 1485
1425 1425 1426 1426 1427 1427 1427 1428 1428 1429 1430 1431 1432 1433 1434 1435 1436 1437 1438 1440 1441 1442 1443 1444 1445 1446 1447 1448 1449 1450 1450 1451 1451 1452 1452 1454 1455 1456 1457 1458 1460 1463 1466 1468 1469 1471 1472 1472 1473 1474 1475 1476 1477 1478 1479 1481 1482 1482 1483 1484 1485 1485 1484 1484 1484 1484 1484 1484 1484
1423 1424 1425 1425 1426 1427 1427 1427 1428 1429 1430 1431 1432 1432 1433 1435 1436 1437 1438 1439 1440 1441 1442 1443 1443 1444 1445 1446 1447 1448 1449 1449 1449 1450 1451 1452 1453 1455 1456 1458 1461 1463 1465 1467 1468 1469 1471 1472 1473 1474 1475 1476 1477 1478 1479 1480 1481 1482 1483 1483 1483 1483 1483 1483 1483 1483 1483 1483 1484
1422 1423 1424 1425 1426 1426 1427 1427 1428 1429 1429 1430 1431 1432 1433 1434 1435 1436 1437 1438 1439 1440 1441 1441 1442 1443 1444 1445 1446 1446 1447 1447 1448 1449 1450 1451 1453 1454 1456 1458 1461 1462 1464 1466 1467 1469 1470 1471 1472 1473 1474 1476 1477 1477 1479 1480 1481 1481 1482 1482 1482 1482 1482 1482 1482 1482 1482 1483 1483
1422 1423 1424 1424 1425 1426 1426 1427 1428 1429 1429 1430 1431 1432 1433 1434 1435 1436 1436 1437 1438 1438 1439 1440 1441 1441 1442 1443 1444 1444 1445 1446 1447 1447 1449 1451 1452 1454 1457 1458 1460 1462 1464 1466 1468 1469 1470 1471 1472 1473 1474 1475 1476 1477 1478 1479 1479 1480 1480 1480 1481 1481 1481 1481 1481 1481 1482 1482 1482
1422 1422 1423 1424 1425 1425 1426 1427 1428 1428 1429 1430 1431 1431 1432 1433 1433 1434 1435 1436 1436 1437 1438 1438 1439 1440 1441 1442 1442 1443 1443 1444 1445 1447 1448 1450 1452 1454 1457 1458 1461 1463 1465 1467 1468 1469 1470 1471 1471 1472 1473 1474 1475 1476 1477 1478 1478 1479 1479 1479 1479 1479 1479 1479 1479 1480 1481 1481 1481
1421 1422 1422 1423 1424 1425 1425 1426 1427 1427 1428 1429 1429 1430 1431 1431 1432 1432 1433 1434 1435 1436 1437 1437 1438 1439 1440 1440 1441 1442 1442 1443 1444 1446 1448 1450 1453 1455 1457 1459 1462 1463 1465 1467 1467 1468 1469 1470 1470 1471 1472 1473 1474 1475 1476 1477 1477 1477 1477 1477 1477 1477 1478 1478 1478 1479 1479 1480 1480
1420 1421 1422 1422 1423 1424 1424 1425 1426 1426 1427 1427 1427 1428 1429 1430 1431 1431 1432 1433 1434 1434 1435 1436 1437 1438 1439 1439 1440 1441 1442 1443 1445 1447 1449 1452 1454 1456 1458 1460 1462 1463 1465 1466 1467 1467 1468 1469 1469 1470 1472 1472 1474 1475 1476 1476 1476 1476 1476 1476 1476 1477 1477 1477 1477 1478 1478 1478 1478
1420 1420 1421 1422 1422 1423 1423 1424 1424 1424 1425 1426 1426 1427 1428 1428 1429 1430 1431 1432 1432 1433 1434 1435 1436 1437 1438 1439 1440 1441 1443 1445 1447 1449 1451 1453 1455 1457 1459 1460 1462 1462 1463 1464 1465 1466 1467 1468 1469 1470 1472 1472 1474 1474 1475 1475 1475 1475 1475 1476 1476 1476 1476 1476 1476 1477 1477 1477 1476
1419 1420 1420 1421 1422 1422 1422 1422 1423 1423 1423 1424 1425 1426 1426 1427 1428 1429 1430 1431 1432 1433 1434 1435 1436 1437 1437 1439 1440 1442 1445 1447 1449 1451 1453 1454 1456 1457 1458 1459 1460 1461 1462 1463 1465 1466 1467 1468 1469 1471 1472 1473 1473 1474 1474 1474 1474 1475 1475 1475 1475 1475 1475 1475 1475 1475 1475 1475 1475
1418 1418 1419 1420 1420 1421 1421 1422 1422 1422 1422 1423 1424 1424 1425 1426 1427 1428 1430 1431 1431 1432 1433 1434 1435 1437 1438 1440 1442 1444 1447 1448 1450 1452 1453 1454 1455 1456 1457 1458 1459 1461 1462 1464 1465 1467 1467 1469 1470 1471 1472 1472 1473 1473 1473 1474 1474 1474 1474 1474 1474 1474 1474 1475 1475 1475 1474 1474 1474
1417 1418 1418 1419 1419 1420 1421 1421 1422 1422 1422 1423 1423 1424 1425 1426 1427 1428 1429 1430 1431 1432 1432 1434 1435 1437 1439 1442 1444 1446 1447 1449 1451 1452 1452 1453 1454 1455 1457 1458 1460 1462 1463 1465 1466 1467 1468 1469 1470 1471 1472 1472 1472 1472 1473 1472 1472 1473 1473 1473 1473 1473 1473 1473 1473 1473 1473 1473 1473
1417 1418 1418 1419 1419 1420 1421 1422 1422 1422 1423 1423 1424 1424 1425 1426 1427 1428 1429 1430 1430 1432 1433 1434 1437 1439 1441 1443 1444 1446 1447 1449 1450 1451 1452 1453 1454 1456 1457 1459 1461 1463 1464 1466 1467 1468 1469 1470 1470 1471 1472 1472 1472 1472 1472 1472 1472 1472 1472 1472 1472 1472 1472 1472 1472 1472 1472 1472 1472
1418 1419 1419 1420 1420 1421 1422 1422 1423 1423 1423 1424 1424 1425 1425 1426 1427 1428 1429 1430 1431 1432 1434 1437 1438 1440 1442 1444 1445 1446 1448 1449 1450 1451 1453 1454 1456 1458 1460 1461 1463 1464 1465 1466 1467 1468 1469 1469 1470 1471 1471 1471 1471 1470 1470 1471 1471 1471 1471 1471 1471 1471 1471 1471 1471 1471 1471 1471 1470
1420 1420 1421 1421 1422 1422 1422 1423 1423 1424 1424 1424 1424 1425 1426 1426 1427 1428 1430 1431 1433 1435 1437 1438 1440 1442 1443 1444 1446 1447 1448 1450 1451 1453 1455 1457 1458 1460 1461 1462 1464 1465 1466 1467 1467 1468 1469 1469 1469 1470 1470 1470 1469 1469 1469 1470 1470 1470 1470 1470 1470 1470 1470 1470 1470 1470 1470 1469 1469
1421 1422 1422 1422 1422 1423 1423 1424 1424 1424 1425 1425 1425 1426 1426 1427 1429 1430 1432 1434 1436 1437 1438 1440 1441 1442 1444 1445 1447 1448 1450 1452 1453 1455 1457 1458 1460 1461 1462 1463 1464 1465 1466 1467 1467 1468 1468 1468 1469 1469 1469 1469 1469 1469 1468 1469 1469 1469 1469 1469 1469 1469 1469 1469 1469 1469 1468 1467 1467
1422 1423 1423 1423 1423 1424 1424 1425 1425 1426 1426 1426 1427 1427 1429 1430 1432 1433 1435 1437 1438 1439 1440 1442 1443 1444 1446 1447 1449 1450 1452 1454 1455 1457 1458 1459 1461 1462 1463 1464 1465 1465 1466 1467 1467 1467 1467 1467 1468 1468 1468 1468 1468 1468 1468 1468 1468 1468 1468 1469 1469 1469 1468 1468 1467 1467 1466 1466 1465
1423 1424 1424 1424 1425 1425 1425 1426 1427 1428 1428 1429 1430 1431 1432 1433 1435 1436 1437 1438 1439 1441 1442 1443 1445 1446 1447 1449 1451 1452 1454 1455 1457 1458 1459 1460 1461 1462 1463 1464 1465 1465 1466 1466 1466 1467 1467 1467 1467 1467 1467 1467 1467 1467 1467 1467 1468 1468 1468 1468 1468 1467 1467 1467 1466 1465 1464 1464 1463
1423 1424 1424 1425 1426 1427 1427 1428 1430 1431 1432 1432 1433 1434 1435 1436 1437 1438 1439 1440 1441 1442 1443 1445 1446 1447 1449 1451 1452 1454 1455 1456 1457 1459 1460 1461 1462 1463 1463 1464 1464 1465 1465 1465 1466 1466 1466 1466 1467 1467 1467 1467 1467 1467 1467 1468 1468 1468 1467 1467 1467 1466 1465 1465 1464 1463 1463 1462 1461
1424 1425 1426 1427 1428 1429 1430 1431 1432 1432 1433 1434 1435 1436 1436 1437 1438 1439 1440 1441 1442 1443 1445 1446 1447 1449 1450 1452 1453 1455 1456 1457 1458 1460 1461 1462 1462 1463 1463 1464 1464 1465 1465 1465 1465 1465 1465 1465 1466 1466 1467 1467 1467 1467 1467 1467 1467 1467 1466 1466 1465 1465 1464 1463 1463 1462 1461 1460 1459
1426 1427 1427 1428 1429 1430 1431 1432 1432 1433 1434 1435 1436 1437 1437 1438 1439 1441 1442 1443 1444 1445 1446 1447 1448 1450 1452 1453 1454 1456 1457 1458 1459 1460 1461 1462 1462 1463 1463 1464 1464 1464 1464 1464 1464 1464 1465 1465 1466 1467 1467 1467 1467 1467 1467 1467 1466 1466 1465 1464 1464 1463 1463 1462 1461 1461 1460 1459 1458
1427 1428 1429 1429 1430 1431 1432 1432 1433 1434 1435 1436 1437 1438 1439 1440 1441 1442 1443 1444 1446 1447 1447 1449 1450 1452 1453 1454 1456 1457 1458 1459 1460 1460 1461 1462 1462 1463 1463 1463 1463 1464 1464 1464 1464 1465 1465 1466 1466 1467 1467 1467 1466 1466 1466 1465 1465 1464 1464 1463 1463 1462 1462 1461 1460 1459 1458 1458 1457
1428 1429 1429 1430 1431 1432 1432 1433 1434 1435 1436 1437 1438 1439 1440 1441 1442 1443 1445 1446 1447 1448 1449 1450 1452 1453 1454 1455 1456 1457 1458 1458 1459 1460 1461 1461 1462 1462 1463 1463 1463 1464 1464 1465 1465 1465 1465 1465 1466 1466 1466 1466 1465 1465 1465 1464 1464 1463 1463 1462 1462 1461 1461 1460 1459 1458 1458 1457 1457
1429 1430 1431 1431 1432 1433 1433 1434 1436 1437 1437 1438 1439 1441 1442 1443 1444 1445 1447 1448 1449 1450 1451 1452 1453 1454 1455 1456 1457 1457 1458 1458 1459 1460 1461 1461 1462 1462 1463 1463 1464 1464 1464 1465 1465 1465 1465 1465 1465 1465 1465 1465 1464 1464 1464 1463 1463 1462 1462 1461 1461 1460 1459 1459 1458 1458 1457 1457 1456